[[{"header":{"parameterUnit":"m.s-1","parameterCategory":2,"la1":30.2991,"la2":30.254,"lo1":-89.0895,"lo2":-89.0444,"dy":0.0017,"dx":0.0017,"nx":28,"ny":28,"refTime":"2025-01-13T09:00:00:Z","depth":"0","parameterNumber":2,"parameterNumberName":"U-component_of_CURRENTS"},"data":[0,0,0,0,0,0,0,0,0,0,0,0,0,0,0,0,0,0,0,0,0,0,0,0,0,0,0,0,0,0,0,0,0,0,0,0,0,0,0,0,0,0,0,0,0,0,0,0,0,0,0,0,0,0,0,0,0,0,-0.2671,-0.2671,0,-0.2668,-0.2668,-0.2668,-0.2628,-0.2627,-0.2626,-0.2626,-0.2584,-0.2583,-0.2583,0,0,0,0,0,0,0,0,0,0,0,0,0,-0.263,-0.2631,-0.2671,-0.2671,-0.2671,-0.2668,-0.2668,-0.2668,-0.2628,-0.2627,-0.2626,-0.2625,-0.2584,-0.2583,-0.2583,0,0,0,0,0,0,0,0,0,0,0,0,0,-0.2638,-0.2632,-0.2671,-0.2653,-0.2651,-0.2668,-0.2668,-0.2668,-0.2628,-0.2627,-0.2626,-0.2625,-0.2584,-0.2584,-0.2583,-0.2604,0,0,-0.2581,-0.2581,0,0,0,0,0,0,0,0,-0.2638,-0.2639,-0.2655,-0.2654,-0.2652,-0.2649,-0.2638,-0.2645,-0.2629,-0.2635,-0.2626,-0.2624,-0.2604,-0.2602,-0.2602,-0.2602,-0.2601,-0.2581,-0.2581,-0.2581,-0.2581,0,0,0,0,0,0,0,-0.2637,-0.2639,-0.2668,-0.2655,-0.2654,-0.2641,-0.264,-0.264,-0.2624,-0.2634,-0.2632,-0.2635,-0.2603,-0.2602,-0.26,-0.26,-0.2581,-0.2581,-0.2581,-0.258,-0.2606,-0.2607,0,0,0,0,0,0,-0.2644,-0.2639,-0.2668,-0.2668,-0.2644,-0.2643,-0.2642,-0.265,-0.2625,-0.2621,-0.2636,-0.2634,-0.2604,-0.2601,-0.2599,-0.2623,-0.2581,-0.258,-0.258,-0.2605,-0.2606,-0.2607,0,0,0,0,0,0,-0.2643,-0.2647,-0.2668,-0.2654,-0.2656,-0.2645,-0.2654,-0.265,-0.2646,-0.2627,-0.2622,-0.2635,-0.2603,-0.26,-0.2605,-0.2621,-0.258,-0.258,-0.2604,-0.2606,-0.2607,-0.2671,0,0,0,0,0,0,-0.2642,-0.2647,-0.265,-0.2655,-0.2658,-0.2689,-0.2655,-0.2651,-0.2652,-0.2648,-0.2625,-0.262,-0.2602,-0.2606,-0.2604,-0.2619,-0.2579,-0.2603,-0.2605,-0.2606,-0.2667,-0.2674,-0.268,0,0,0,0,0,-0.2641,-0.2659,-0.2651,-0.2654,-0.2665,-0.269,-0.2691,-0.2676,-0.2653,-0.2664,-0.2646,-0.262,-0.2616,-0.2607,-0.2604,-0.262,-0.2602,-0.2604,-0.2606,-0.2665,-0.2673,-0.268,0,0,0,0,0,0,-0.2644,-0.2657,-0.2648,-0.2668,-0.2681,-0.2684,-0.2691,-0.2681,-0.2676,-0.2665,-0.2638,-0.2633,-0.2642,-0.2626,-0.2616,-0.2633,-0.2603,-0.2605,-0.2648,-0.2656,-0.2662,-0.2671,-0.2579,0,0,0,0,0,-0.2648,-0.266,-0.2674,-0.2688,-0.2697,-0.2693,-0.2698,-0.2692,-0.2691,-0.2686,-0.2671,-0.2655,-0.2652,-0.2649,-0.2643,-0.2658,-0.2632,-0.2665,-0.2671,-0.2677,-0.2683,-0.2666,-0.2672,-0.2615,-0.2615,-0.2615,0,0,-0.265,-0.266,-0.2665,-0.2689,-0.2692,-0.2721,-0.2692,-0.2709,-0.2726,-0.2684,-0.2697,-0.2679,-0.2661,-0.2675,-0.2677,-0.2662,-0.2678,-0.268,-0.2684,-0.2687,-0.2669,-0.2675,-0.2679,-0.2616,-0.2616,-0.2616,0,0,-0.2673,-0.2674,-0.2695,-0.2714,-0.2732,-0.2737,-0.2745,-0.2755,-0.2752,-0.2769,-0.2739,-0.2734,-0.273,-0.2722,-0.2716,-0.2756,-0.2713,-0.2751,-0.2791,-0.2776,-0.278,-0.2783,-0.2752,-0.2752,-0.2754,-0.2754,-0.2754,0,-0.2675,-0.2701,-0.2707,-0.2739,-0.2754,-0.2749,-0.2781,-0.2791,-0.2798,-0.2798,-0.278,-0.2769,-0.2754,-0.2766,-0.278,-0.2771,-0.2748,-0.2763,-0.2784,-0.2787,-0.2789,-0.2756,-0.2756,-0.2758,-0.2757,-0.2757,-0.2757,0,-0.2716,-0.2739,-0.2757,-0.2792,-0.2815,-0.284,-0.286,-0.2874,-0.2865,-0.2864,-0.2869,-0.2849,-0.2837,-0.2836,-0.2822,-0.2836,-0.2809,-0.2793,-0.2764,-0.2799,-0.2762,-0.276,-0.2763,-0.2761,-0.276,-0.2759,0,0,-0.2707,-0.2772,-0.2773,-0.2794,-0.284,-0.2859,-0.2903,-0.293,-0.2939,-0.2942,-0.295,-0.2949,-0.2921,-0.2914,-0.289,-0.2884,-0.2882,-0.2853,-0.285,-0.2821,-0.2835,-0.277,-0.2761,-0.2868,-0.2869,-0.2869,-0.28,0,-0.2729,-0.2789,-0.2821,-0.2871,-0.29,-0.2923,-0.2961,-0.2984,-0.2989,-0.2999,-0.2981,-0.2976,-0.2957,-0.2941,-0.2938,-0.2896,-0.2881,-0.2901,-0.2806,-0.2803,-0.2741,-0.2759,-0.2677,-0.2605,-0.2798,-0.2797,-0.2797,0,-0.2744,-0.2784,-0.2838,-0.2896,-0.2911,-0.2943,-0.298,-0.3013,-0.3039,-0.304,-0.304,-0.3021,-0.3017,-0.2987,-0.2941,-0.2953,-0.2903,-0.2868,-0.2864,-0.2781,-0.2735,-0.2602,-0.2594,-0.2583,-0.2794,-0.2794,-0.2794,0,-0.2703,-0.2785,-0.282,-0.2843,-0.2919,-0.2941,-0.2974,-0.3013,-0.3027,-0.3055,-0.3053,-0.3054,-0.3027,-0.2994,-0.2925,-0.2933,-0.286,-0.2854,-0.2746,-0.274,-0.264,-0.2625,-0.2608,-0.2816,-0.2816,-0.2816,-0.2816,0,-0.2696,-0.2718,-0.2802,-0.2818,-0.2849,-0.2916,-0.2939,-0.2975,-0.3018,-0.3018,-0.3056,-0.304,-0.3027,-0.2983,-0.2934,-0.2829,-0.286,-0.2753,-0.2721,-0.2659,-0.2647,-0.2607,-0.262,-0.2814,-0.2814,-0.2815,-0.2815,0,-0.2621,-0.2685,-0.2721,-0.2804,-0.2824,-0.2837,-0.2902,-0.2913,-0.2975,-0.2977,-0.2983,-0.3016,-0.2965,-0.2933,-0.2862,-0.2811,-0.2682,-0.2684,-0.2606,-0.2567,-0.2465,-0.2483,-0.2388,-0.2319,-0.2565,-0.2563,-0.2561,0,-0.258,-0.2594,-0.2674,-0.2679,-0.2708,-0.2747,-0.2763,-0.2859,-0.2874,-0.294,-0.2925,-0.2915,-0.2864,-0.2762,-0.2696,-0.26,-0.2578,-0.2459,-0.2463,-0.2449,-0.2446,-0.244,-0.2389,-0.2352,-0.2348,-0.2346,-0.2344,0,-0.248,-0.251,-0.2532,-0.2558,-0.2579,-0.2607,-0.2648,-0.2661,-0.2759,-0.2769,-0.2764,-0.2742,-0.2693,-0.2579,-0.249,-0.2419,-0.2407,-0.24,-0.2406,-0.2298,-0.2269,-0.2189,-0.2407,-0.232,-0.2322,-0.2324,-0.2325,-0.2326,-0.2371,-0.2361,-0.2393,-0.2399,-0.2428,-0.2435,-0.2406,-0.2466,-0.247,-0.2464,-0.255,-0.2498,-0.2479,-0.2354,-0.2291,-0.2191,-0.222,-0.2131,-0.2158,-0.2157,-0.2083,-0.2245,-0.2113,-0.2114,-0.2115,-0.2116,-0.2117,0,-0.222,-0.2226,-0.2228,-0.2235,-0.2203,-0.2276,-0.2291,-0.2237,-0.2185,-0.2247,-0.2224,-0.2238,-0.2143,-0.2145,-0.2079,-0.1989,-0.1936,-0.1939,-0.1931,-0.1891,-0.2046,-0.2032,-0.185,-0.185,-0.185,-0.185,-0.185,-0.185,-0.2139,-0.2086,-0.2095,-0.1999,-0.1999,-0.1911,-0.1883,-0.1836,-0.1847,-0.1814,-0.1865,-0.1959,-0.199,-0.2107,-0.2005,-0.1908,-0.1847,-0.1781,-0.1791,-0.1944,-0.1966,-0.1986,-0.1977,-0.1786,-0.1786,-0.1574,-0.1573,-0.1572]},{"header":{"parameterUnit":"m.s-1","parameterCategory":2,"la1":30.2991,"la2":30.254,"lo1":-89.0895,"lo2":-89.0444,"dy":0.0017,"dx":0.0017,"nx":28,"ny":28,"refTime":"2025-01-13T09:00:00:Z","depth":"0","parameterNumber":3,"parameterNumberName":"V-component_of_CURRENTS"},"data":[0,0,0,0,0,0,0,0,0,0,0,0,0,0,0,0,0,0,0,0,0,0,0,0,0,0,0,0,0,0,0,0,0,0,0,0,0,0,0,0,0,0,0,0,0,0,0,0,0,0,0,0,0,0,0,0,0,0,-0.0439,-0.0439,0,-0.0365,-0.0364,-0.0363,-0.0317,-0.0317,-0.0317,-0.0317,-0.0219,-0.0217,-0.0215,0,0,0,0,0,0,0,0,0,0,0,0,0,-0.0495,-0.0494,-0.044,-0.0439,-0.0438,-0.0365,-0.0364,-0.0363,-0.0317,-0.0317,-0.0317,-0.0316,-0.022,-0.0217,-0.0215,0,0,0,0,0,0,0,0,0,0,0,0,0,-0.0451,-0.0494,-0.044,-0.0406,-0.0403,-0.0365,-0.0364,-0.0363,-0.0317,-0.0317,-0.0317,-0.0316,-0.0221,-0.0218,-0.0214,-0.0198,0,0,-0.0203,-0.0202,0,0,0,0,0,0,0,0,-0.0453,-0.0449,-0.0412,-0.0409,-0.0404,-0.035,-0.0348,-0.0307,-0.0317,-0.0349,-0.0317,-0.0316,-0.0262,-0.0255,-0.0241,-0.0194,-0.019,-0.0203,-0.0201,-0.0199,-0.0198,0,0,0,0,0,0,0,-0.0456,-0.0451,-0.041,-0.0411,-0.0406,-0.0379,-0.0373,-0.034,-0.0308,-0.0347,-0.0343,-0.0335,-0.0259,-0.0245,-0.0239,-0.0188,-0.0203,-0.02,-0.0198,-0.0196,-0.0109,-0.0109,0,0,0,0,0,0,-0.0469,-0.0454,-0.0412,-0.0407,-0.0429,-0.0378,-0.0371,-0.0368,-0.0308,-0.0299,-0.0336,-0.0334,-0.0251,-0.0243,-0.0235,-0.0213,-0.0199,-0.0196,-0.0194,-0.0109,-0.0109,-0.0109,0,0,0,0,0,0,-0.0471,-0.0466,-0.0415,-0.0429,-0.0421,-0.0378,-0.0374,-0.0366,-0.0353,-0.03,-0.0291,-0.0331,-0.025,-0.024,-0.0208,-0.0209,-0.0194,-0.0191,-0.0109,-0.0109,-0.0109,-0.0169,0,0,0,0,0,0,-0.0473,-0.0467,-0.0471,-0.043,-0.042,-0.04,-0.0374,-0.0365,-0.0349,-0.0346,-0.0293,-0.0283,-0.0249,-0.0213,-0.0204,-0.0204,-0.0188,-0.0109,-0.0109,-0.0109,-0.0167,-0.0171,-0.0174,0,0,0,0,0,-0.0475,-0.0485,-0.0472,-0.0467,-0.0427,-0.0401,-0.0393,-0.0361,-0.0349,-0.0348,-0.031,-0.0285,-0.0204,-0.021,-0.02,-0.0198,-0.011,-0.0109,-0.0109,-0.0166,-0.017,-0.0174,0,0,0,0,0,0,-0.0512,-0.048,-0.0465,-0.0465,-0.0438,-0.0393,-0.039,-0.0367,-0.0336,-0.0334,-0.0284,-0.0272,-0.0244,-0.0212,-0.022,-0.0171,-0.0152,-0.015,-0.0199,-0.0203,-0.0206,-0.0219,-0.0185,0,0,0,0,0,-0.0523,-0.0523,-0.0484,-0.0485,-0.0474,-0.0433,-0.0419,-0.0398,-0.0364,-0.035,-0.0311,-0.0269,-0.0233,-0.0213,-0.0177,-0.0152,-0.0114,-0.0142,-0.0146,-0.0149,-0.0151,-0.0099,-0.0098,-0.0107,-0.0107,-0.0107,0,0,-0.0538,-0.052,-0.052,-0.0493,-0.0469,-0.0463,-0.0424,-0.041,-0.0401,-0.0344,-0.0323,-0.0281,-0.0229,-0.0201,-0.0185,-0.0175,-0.0126,-0.0148,-0.0152,-0.0152,-0.0099,-0.0098,-0.0097,-0.0107,-0.0107,-0.0107,0,0,-0.0573,-0.0552,-0.0566,-0.0546,-0.0518,-0.0489,-0.0489,-0.0446,-0.0424,-0.0398,-0.0354,-0.0314,-0.0262,-0.0221,-0.0194,-0.0194,-0.0147,-0.0182,-0.0208,-0.0158,-0.0157,-0.0155,-0.0106,-0.01,-0.0182,-0.0182,-0.0182,0,-0.0594,-0.0603,-0.0565,-0.0571,-0.056,-0.0507,-0.0516,-0.0485,-0.0437,-0.0415,-0.0401,-0.0311,-0.027,-0.0225,-0.0225,-0.0202,-0.0167,-0.02,-0.0163,-0.0161,-0.0159,-0.0109,-0.0101,-0.0185,-0.0185,-0.0185,-0.0184,0,-0.0638,-0.0642,-0.0648,-0.0637,-0.0619,-0.0617,-0.057,-0.0547,-0.0513,-0.0473,-0.0422,-0.036,-0.0306,-0.0285,-0.0256,-0.0216,-0.0194,-0.0177,-0.0158,-0.0162,-0.0108,-0.0099,-0.0189,-0.0188,-0.0187,-0.0187,0,0,-0.069,-0.0683,-0.0684,-0.0689,-0.0653,-0.0643,-0.0624,-0.0585,-0.0565,-0.051,-0.0477,-0.041,-0.0367,-0.0334,-0.0285,-0.0239,-0.0192,-0.0208,-0.0203,-0.0167,-0.0081,-0.0024,-0.0009,-0.0171,-0.0169,-0.0168,-0.005,0,-0.0737,-0.0772,-0.0745,-0.0764,-0.0775,-0.0717,-0.0701,-0.0654,-0.06,-0.0552,-0.0474,-0.0426,-0.0388,-0.036,-0.031,-0.0216,-0.0171,-0.0226,-0.0074,-0.007,-0.0026,0.0003,0.0039,0.0151,-0.0041,-0.004,-0.0039,0,-0.0788,-0.0804,-0.084,-0.0827,-0.0824,-0.0822,-0.0775,-0.0751,-0.0664,-0.0619,-0.0551,-0.0483,-0.0401,-0.0375,-0.0226,-0.0262,-0.0184,-0.0113,-0.0107,-0.0027,0.0003,0.0126,0.0175,0.0311,-0.0024,-0.0026,-0.0027,0,-0.085,-0.0864,-0.0897,-0.0895,-0.0873,-0.087,-0.0848,-0.0775,-0.0744,-0.0658,-0.0622,-0.0514,-0.0449,-0.0344,-0.0195,-0.0212,-0.0024,-0.0027,0.0098,0.0102,0.0179,0.0188,0.0371,0.0068,0.0067,0.0067,0.0067,0,-0.091,-0.0932,-0.0931,-0.095,-0.0974,-0.093,-0.0925,-0.0881,-0.0808,-0.0762,-0.0666,-0.0599,-0.0438,-0.0308,-0.0196,-0.0005,-0.0021,0.0105,0.0142,0.016,0.0166,0.0323,0.0364,0.0071,0.007,0.007,0.0069,0,-0.0972,-0.0973,-0.101,-0.1009,-0.1008,-0.1023,-0.0987,-0.097,-0.0897,-0.0834,-0.0809,-0.0646,-0.0465,-0.0297,-0.0092,0.0009,0.0263,0.0235,0.0247,0.0284,0.0509,0.0545,0.0761,0.083,0.0385,0.0387,0.0389,0,-0.1006,-0.1036,-0.1064,-0.1086,-0.109,-0.1099,-0.1096,-0.1028,-0.0999,-0.0852,-0.0823,-0.0631,-0.0476,-0.0151,0.007,0.0296,0.0378,0.0448,0.0421,0.0546,0.0612,0.0636,0.0678,0.0499,0.0502,0.0504,0.0506,0,-0.1066,-0.1076,-0.1107,-0.1162,-0.1179,-0.1187,-0.1174,-0.1161,-0.1058,-0.0976,-0.082,-0.068,-0.0345,-0.0043,0.0257,0.0386,0.0554,0.0498,0.0633,0.0727,0.0761,0.0837,0.0393,0.0524,0.0522,0.0521,0.052,0.0519,-0.1098,-0.1139,-0.118,-0.1226,-0.1249,-0.1256,-0.1244,-0.1196,-0.1123,-0.0965,-0.0831,-0.0589,-0.0159,0.0284,0.044,0.0782,0.0728,0.0868,0.0903,0.0918,0.0982,0.058,0.0748,0.0747,0.0747,0.0746,0.0746,0,-0.1131,-0.1176,-0.1234,-0.1279,-0.1307,-0.1301,-0.1273,-0.1218,-0.1111,-0.0955,-0.0775,-0.0302,0.0128,0.0504,0.0993,0.1174,0.1192,0.1258,0.13,0.1323,0.0986,0.0989,0.1211,0.1211,0.1211,0.1211,0.1211,0.121,-0.1147,-0.1213,-0.1248,-0.1307,-0.1333,-0.1321,-0.1292,-0.1181,-0.1053,-0.0764,-0.0502,-0.0307,0.0247,0.1068,0.1523,0.1555,0.1678,0.1677,0.1739,0.1504,0.1469,0.1437,0.1452,0.1767,0.1768,0.2065,0.2068,0.207]}],[{"header":{"parameterUnit":"m.s-1","parameterCategory":2,"la1":30.2991,"la2":30.254,"lo1":-89.0895,"lo2":-89.0444,"dy":0.0017,"dx":0.0017,"nx":28,"ny":28,"refTime":"2025-01-13T09:00:00:Z","depth":"2","parameterNumber":2,"parameterNumberName":"U-component_of_CURRENTS"},"data":[0,0,0,0,0,0,0,0,0,0,0,0,0,0,0,0,0,0,0,0,0,0,0,0,0,0,0,0,0,0,0,0,0,0,0,0,0,0,0,0,0,0,0,0,0,0,0,0,0,0,0,0,0,0,0,0,0,0,-0.2364,-0.2365,0,-0.2367,-0.2367,-0.2367,-0.2341,-0.2341,-0.234,-0.234,-0.2313,-0.2312,-0.2312,0,0,0,0,0,0,0,0,0,0,0,0,0,-0.2325,-0.2326,-0.2364,-0.2365,-0.2365,-0.2367,-0.2367,-0.2367,-0.2341,-0.2341,-0.234,-0.2339,-0.2313,-0.2312,-0.2312,0,0,0,0,0,0,0,0,0,0,0,0,0,-0.2335,-0.2326,-0.2364,-0.2354,-0.2353,-0.2367,-0.2367,-0.2367,-0.2341,-0.2341,-0.234,-0.2339,-0.2313,-0.2312,-0.2312,-0.2326,0,0,-0.2311,-0.2311,0,0,0,0,0,0,0,0,-0.2334,-0.2336,-0.2355,-0.2355,-0.2354,-0.2355,-0.2343,-0.2352,-0.2342,-0.2344,-0.234,-0.2339,-0.2326,-0.2324,-0.2324,-0.2324,-0.2323,-0.2311,-0.2311,-0.2311,-0.2311,0,0,0,0,0,0,0,-0.2334,-0.2336,-0.2363,-0.2356,-0.2355,-0.2345,-0.2346,-0.2345,-0.2337,-0.2344,-0.2342,-0.2346,-0.2325,-0.2325,-0.2323,-0.2323,-0.2311,-0.2311,-0.2311,-0.231,-0.234,-0.2341,0,0,0,0,0,0,-0.2339,-0.2335,-0.2363,-0.2364,-0.2344,-0.2347,-0.2347,-0.2354,-0.2338,-0.2335,-0.2347,-0.2345,-0.2326,-0.2324,-0.2322,-0.2352,-0.2311,-0.231,-0.231,-0.2339,-0.234,-0.2341,0,0,0,0,0,0,-0.2338,-0.2342,-0.2363,-0.2351,-0.2353,-0.2349,-0.2356,-0.2354,-0.2356,-0.2341,-0.2337,-0.2351,-0.2325,-0.2323,-0.2333,-0.235,-0.231,-0.231,-0.2338,-0.2339,-0.2341,-0.2402,0,0,0,0,0,0,-0.2337,-0.2341,-0.2346,-0.2351,-0.2354,-0.2384,-0.2357,-0.2355,-0.2361,-0.2358,-0.2344,-0.234,-0.2324,-0.2333,-0.2332,-0.2349,-0.231,-0.2337,-0.2339,-0.234,-0.2399,-0.2406,-0.2411,0,0,0,0,0,-0.2336,-0.2352,-0.2347,-0.235,-0.2362,-0.2385,-0.2386,-0.2378,-0.2362,-0.2374,-0.2363,-0.2341,-0.2344,-0.2334,-0.2333,-0.2349,-0.2336,-0.2338,-0.234,-0.2396,-0.2404,-0.2411,0,0,0,0,0,0,-0.2339,-0.2352,-0.2345,-0.2364,-0.2377,-0.2382,-0.239,-0.2385,-0.2385,-0.2379,-0.2357,-0.2354,-0.2367,-0.2353,-0.2343,-0.2363,-0.2335,-0.2337,-0.2378,-0.2385,-0.2392,-0.2396,-0.2309,0,0,0,0,0,-0.2343,-0.2354,-0.2368,-0.2381,-0.2391,-0.2391,-0.2397,-0.2395,-0.2398,-0.2396,-0.2387,-0.2377,-0.2376,-0.2376,-0.2372,-0.2388,-0.2364,-0.2397,-0.2403,-0.2409,-0.2411,-0.2397,-0.2402,-0.2349,-0.2349,-0.2349,0,0,-0.2346,-0.2354,-0.236,-0.2382,-0.2388,-0.2414,-0.2392,-0.2411,-0.2428,-0.2394,-0.2412,-0.24,-0.2385,-0.2401,-0.2406,-0.2391,-0.2411,-0.2411,-0.2416,-0.2416,-0.24,-0.2405,-0.2409,-0.235,-0.235,-0.235,0,0,-0.2365,-0.2369,-0.2388,-0.2406,-0.2425,-0.2431,-0.244,-0.2453,-0.2454,-0.2475,-0.2451,-0.2452,-0.2454,-0.2447,-0.2442,-0.2481,-0.2444,-0.248,-0.2516,-0.2503,-0.2507,-0.251,-0.2485,-0.2486,-0.2484,-0.2484,-0.2484,0,-0.2368,-0.2391,-0.2398,-0.2426,-0.2441,-0.2443,-0.2471,-0.2483,-0.2495,-0.2498,-0.2488,-0.2486,-0.2475,-0.2487,-0.2502,-0.2495,-0.2477,-0.249,-0.2511,-0.2513,-0.2516,-0.2489,-0.2489,-0.2487,-0.2487,-0.2487,-0.2486,0,-0.2402,-0.2423,-0.2439,-0.2471,-0.2493,-0.2518,-0.2539,-0.2557,-0.2556,-0.2558,-0.257,-0.2556,-0.2551,-0.2552,-0.2541,-0.2556,-0.2534,-0.2519,-0.2491,-0.2525,-0.2494,-0.2493,-0.2492,-0.2491,-0.249,-0.2489,0,0,-0.2393,-0.2451,-0.2453,-0.2472,-0.2516,-0.2534,-0.2575,-0.2603,-0.2616,-0.2627,-0.2639,-0.2642,-0.2625,-0.2619,-0.2603,-0.2597,-0.26,-0.2573,-0.2571,-0.2547,-0.2563,-0.25,-0.2492,-0.259,-0.259,-0.259,-0.2535,0,-0.2412,-0.2463,-0.2491,-0.2537,-0.2563,-0.2589,-0.2623,-0.2649,-0.266,-0.2676,-0.2666,-0.267,-0.2654,-0.2649,-0.2646,-0.2611,-0.2599,-0.2616,-0.2535,-0.2532,-0.2471,-0.2489,-0.232,-0.2252,-0.2533,-0.2533,-0.2533,0,-0.2424,-0.2457,-0.2505,-0.2559,-0.2573,-0.2605,-0.2644,-0.2677,-0.2707,-0.2715,-0.2722,-0.2712,-0.2712,-0.2689,-0.265,-0.2662,-0.2621,-0.2591,-0.2587,-0.2505,-0.2466,-0.2264,-0.2239,-0.253,-0.253,-0.253,-0.253,0,-0.2388,-0.2459,-0.2492,-0.2512,-0.2582,-0.2605,-0.2639,-0.268,-0.2697,-0.2734,-0.2739,-0.2744,-0.2728,-0.2699,-0.2642,-0.2649,-0.2586,-0.258,-0.2482,-0.2476,-0.2303,-0.2282,-0.2547,-0.2547,-0.2547,-0.2547,-0.2548,0,-0.238,-0.2402,-0.2477,-0.2493,-0.2525,-0.2588,-0.2616,-0.2653,-0.2699,-0.2704,-0.2747,-0.2736,-0.273,-0.2693,-0.2651,-0.2556,-0.2588,-0.2487,-0.2459,-0.232,-0.2302,-0.2521,-0.2518,-0.2545,-0.2546,-0.2546,-0.2546,0,-0.2316,-0.2373,-0.2407,-0.2484,-0.2505,-0.2522,-0.2588,-0.2601,-0.2667,-0.2676,-0.2686,-0.272,-0.2677,-0.2653,-0.2592,-0.2543,-0.2475,-0.2429,-0.2265,-0.2219,-0.2373,-0.2375,-0.2323,-0.232,-0.2318,-0.2316,-0.2314,0,-0.2281,-0.2294,-0.237,-0.2377,-0.2406,-0.2449,-0.2466,-0.2559,-0.2573,-0.2643,-0.263,-0.263,-0.2581,-0.2491,-0.2423,-0.2336,-0.2392,-0.2125,-0.2111,-0.2373,-0.2352,-0.2357,-0.2361,-0.1901,-0.1896,-0.1892,-0.1889,0,-0.2193,-0.2224,-0.2244,-0.2271,-0.2294,-0.232,-0.2362,-0.2373,-0.2467,-0.2478,-0.2472,-0.2452,-0.2408,-0.225,-0.2172,-0.2097,-0.2135,-0.2042,-0.2339,-0.1996,-0.1974,-0.1954,-0.1972,-0.1854,-0.1857,-0.186,-0.1862,-0.1863,-0.21,-0.2091,-0.212,-0.2128,-0.2158,-0.2161,-0.2131,-0.2184,-0.2183,-0.217,-0.2254,-0.2168,-0.2159,-0.1955,-0.1852,-0.1783,-0.1926,-0.1827,-0.1839,-0.1856,-0.1829,-0.1805,-0.1648,-0.165,-0.1652,-0.1654,-0.1655,0,-0.1964,-0.1968,-0.197,-0.1975,-0.1943,-0.2017,-0.2023,-0.1961,-0.1902,-0.1938,-0.1911,-0.1711,-0.1627,-0.1625,-0.1482,-0.1454,-0.1438,-0.1374,-0.1357,-0.1393,-0.1425,-0.1377,-0.1075,-0.1073,-0.1071,-0.107,0,0,-0.1891,-0.184,-0.1844,-0.1749,-0.1751,-0.1662,-0.1632,-0.157,-0.1555,-0.145,-0.1417,-0.1541,-0.1584,-0.1332,-0.1274,-0.1156,-0.1256,-0.1093,-0.1559,-0.1575,-0.1605,-0.1688,-0.1655,0,0,0,0,0]},{"header":{"parameterUnit":"m.s-1","parameterCategory":2,"la1":30.2991,"la2":30.254,"lo1":-89.0895,"lo2":-89.0444,"dy":0.0017,"dx":0.0017,"nx":28,"ny":28,"refTime":"2025-01-13T09:00:00:Z","depth":"2","parameterNumber":3,"parameterNumberName":"V-component_of_CURRENTS"},"data":[0,0,0,0,0,0,0,0,0,0,0,0,0,0,0,0,0,0,0,0,0,0,0,0,0,0,0,0,0,0,0,0,0,0,0,0,0,0,0,0,0,0,0,0,0,0,0,0,0,0,0,0,0,0,0,0,0,0,-0.0339,-0.0338,0,-0.0274,-0.0273,-0.0273,-0.0233,-0.0233,-0.0233,-0.0233,-0.0146,-0.0144,-0.0141,0,0,0,0,0,0,0,0,0,0,0,0,0,-0.0386,-0.0386,-0.0339,-0.0338,-0.0338,-0.0274,-0.0273,-0.0272,-0.0233,-0.0233,-0.0233,-0.0233,-0.0146,-0.0144,-0.0141,0,0,0,0,0,0,0,0,0,0,0,0,0,-0.0348,-0.0386,-0.0339,-0.031,-0.0307,-0.0274,-0.0273,-0.0272,-0.0233,-0.0233,-0.0233,-0.0232,-0.0147,-0.0144,-0.0141,-0.0126,0,0,-0.0131,-0.013,0,0,0,0,0,0,0,0,-0.035,-0.0346,-0.0316,-0.0312,-0.0309,-0.0262,-0.0258,-0.0222,-0.0233,-0.0261,-0.0233,-0.0232,-0.0183,-0.0177,-0.0165,-0.0122,-0.0118,-0.0131,-0.0129,-0.0127,-0.0126,0,0,0,0,0,0,0,-0.0353,-0.0348,-0.0313,-0.0315,-0.0311,-0.0286,-0.0281,-0.0251,-0.0224,-0.0259,-0.0256,-0.0249,-0.0181,-0.0168,-0.0163,-0.0117,-0.0131,-0.0128,-0.0126,-0.0125,-0.0047,-0.0046,0,0,0,0,0,0,-0.0364,-0.0351,-0.0315,-0.0311,-0.0329,-0.0286,-0.0279,-0.0277,-0.0224,-0.0216,-0.0249,-0.0247,-0.0174,-0.0166,-0.0159,-0.0138,-0.0127,-0.0124,-0.0122,-0.0047,-0.0047,-0.0046,0,0,0,0,0,0,-0.0365,-0.0361,-0.0318,-0.033,-0.0322,-0.0285,-0.0282,-0.0276,-0.0265,-0.0217,-0.0209,-0.0246,-0.0173,-0.0164,-0.0135,-0.0134,-0.0123,-0.012,-0.0047,-0.0047,-0.0047,-0.0095,0,0,0,0,0,0,-0.0367,-0.0362,-0.0367,-0.0331,-0.0322,-0.0305,-0.0282,-0.0275,-0.0261,-0.0258,-0.0212,-0.0203,-0.0172,-0.0141,-0.0132,-0.013,-0.0117,-0.0047,-0.0047,-0.0047,-0.0094,-0.0097,-0.0099,0,0,0,0,0,-0.0369,-0.0378,-0.0367,-0.0363,-0.0329,-0.0305,-0.0299,-0.0271,-0.0262,-0.026,-0.0228,-0.0205,-0.0133,-0.0138,-0.0128,-0.0125,-0.0047,-0.0047,-0.0047,-0.0093,-0.0096,-0.0099,0,0,0,0,0,0,-0.04,-0.0373,-0.0362,-0.0362,-0.0338,-0.0299,-0.0296,-0.0277,-0.025,-0.0249,-0.0204,-0.0194,-0.0168,-0.014,-0.0147,-0.0101,-0.0086,-0.0083,-0.0124,-0.0127,-0.013,-0.0141,-0.0115,0,0,0,0,0,-0.041,-0.041,-0.0377,-0.0378,-0.0369,-0.0334,-0.0322,-0.0304,-0.0274,-0.0263,-0.0228,-0.0191,-0.0158,-0.0139,-0.0108,-0.0084,-0.0049,-0.0074,-0.0077,-0.0079,-0.0081,-0.0029,-0.0027,-0.0045,-0.0045,-0.0045,0,0,-0.0422,-0.0408,-0.0408,-0.0385,-0.0365,-0.0359,-0.0327,-0.0314,-0.0306,-0.0257,-0.0237,-0.0202,-0.0155,-0.0128,-0.0114,-0.0104,-0.0056,-0.0079,-0.0081,-0.0082,-0.0028,-0.0027,-0.0025,-0.0045,-0.0045,-0.0045,0,0,-0.0451,-0.0435,-0.0447,-0.043,-0.0407,-0.0382,-0.0382,-0.0345,-0.0326,-0.0303,-0.0264,-0.0228,-0.0182,-0.0143,-0.0119,-0.0117,-0.0074,-0.0108,-0.0127,-0.0077,-0.0075,-0.0073,-0.0029,-0.0022,-0.0106,-0.0106,-0.0107,0,-0.0469,-0.0478,-0.0446,-0.0452,-0.0442,-0.0397,-0.0404,-0.0377,-0.0335,-0.0315,-0.0305,-0.0224,-0.0188,-0.0142,-0.0143,-0.0123,-0.0091,-0.0121,-0.0081,-0.0078,-0.0075,-0.003,-0.0023,-0.0109,-0.0108,-0.0108,-0.0108,0,-0.0506,-0.051,-0.0515,-0.0507,-0.049,-0.0489,-0.0447,-0.0428,-0.0399,-0.0363,-0.0316,-0.0261,-0.0213,-0.0193,-0.0168,-0.0127,-0.011,-0.0094,-0.0076,-0.0076,-0.0029,-0.002,-0.0112,-0.0111,-0.0111,-0.011,0,0,-0.0551,-0.0545,-0.0547,-0.0553,-0.0521,-0.0513,-0.0493,-0.0457,-0.044,-0.039,-0.0359,-0.0297,-0.026,-0.0231,-0.0187,-0.0141,-0.0094,-0.0115,-0.0111,-0.0078,0.0014,0.0057,0.0071,-0.0072,-0.0071,-0.007,0.0038,0,-0.0591,-0.0623,-0.0598,-0.0616,-0.0627,-0.0575,-0.0559,-0.0517,-0.0469,-0.0426,-0.0353,-0.031,-0.0276,-0.0253,-0.0202,-0.0118,-0.0073,-0.0125,0.0015,0.0019,0.0052,0.0082,0.0057,0.0154,0.0047,0.0048,0.0049,0,-0.0636,-0.0652,-0.0685,-0.0674,-0.0672,-0.0669,-0.063,-0.0607,-0.0527,-0.0487,-0.0423,-0.0362,-0.0282,-0.026,-0.0118,-0.0154,-0.008,-0.0015,-0.0009,0.0054,0.0079,0.0139,0.0174,0.0065,0.0063,0.0062,0.0061,0,-0.0695,-0.0707,-0.0738,-0.0736,-0.0717,-0.0715,-0.0697,-0.0631,-0.0605,-0.0524,-0.0494,-0.0388,-0.0332,-0.0228,-0.0091,-0.0106,0.0069,0.0069,0.0178,0.0182,0.0201,0.0204,0.0163,0.0163,0.0163,0.0163,0.0162,0,-0.0751,-0.0772,-0.0772,-0.0791,-0.0817,-0.0775,-0.0775,-0.0736,-0.0669,-0.0632,-0.0535,-0.0476,-0.0322,-0.02,-0.0092,0.0082,0.0073,0.0185,0.0219,0.0183,0.0184,0.0136,0.0132,0.0167,0.0166,0.0165,0.0164,0,-0.0812,-0.0812,-0.0849,-0.0849,-0.085,-0.0869,-0.084,-0.0828,-0.076,-0.0708,-0.0685,-0.053,-0.0363,-0.0201,-0.0008,0.0089,0.0242,0.0301,0.025,0.0276,0.0316,0.0308,0.043,0.0432,0.0435,0.0436,0.0438,0,-0.0847,-0.0876,-0.0905,-0.093,-0.0935,-0.0949,-0.095,-0.0888,-0.0864,-0.0733,-0.0708,-0.0532,-0.0391,-0.0086,0.0119,0.0333,0.0316,0.0424,0.0395,0.0327,0.0347,0.0335,0.0324,0.0399,0.04,0.0401,0.0402,0,-0.0909,-0.092,-0.0951,-0.101,-0.103,-0.1042,-0.1035,-0.1027,-0.0934,-0.0862,-0.0722,-0.0595,-0.029,-0.0035,0.0245,0.036,0.0388,0.045,0.0411,0.0334,0.0307,0.0323,0.0312,0.041,0.0409,0.0408,0.0408,0.0408,-0.0946,-0.0987,-0.103,-0.1079,-0.1106,-0.1119,-0.1112,-0.1071,-0.101,-0.0869,-0.0749,-0.0533,-0.0286,0.0122,0.032,0.0498,0.049,0.052,0.0514,0.0507,0.0483,0.0461,0.0588,0.0589,0.0589,0.0589,0.0589,0,-0.0985,-0.103,-0.1089,-0.1138,-0.1171,-0.1168,-0.1148,-0.1098,-0.1008,-0.0869,-0.0709,-0.0426,-0.0139,0.0108,0.0404,0.0579,0.0547,0.0594,0.0514,0.0507,0.05,0.0471,0.0575,0.0576,0.0576,0.0576,0,0,-0.1005,-0.1072,-0.1105,-0.1172,-0.1203,-0.1201,-0.1179,-0.1075,-0.0959,-0.0789,-0.0634,-0.0438,-0.0131,0.0068,0.0293,0.0445,0.0424,0.0453,0.0448,0.0321,0.0312,0.0447,0.0394,0,0,0,0,0]}],[{"header":{"parameterUnit":"m.s-1","parameterCategory":2,"la1":30.2991,"la2":30.254,"lo1":-89.0895,"lo2":-89.0444,"dy":0.0017,"dx":0.0017,"nx":28,"ny":28,"refTime":"2025-01-13T09:00:00:Z","depth":"4","parameterNumber":2,"parameterNumberName":"U-component_of_CURRENTS"},"data":[0,0,0,0,0,0,0,0,0,0,0,0,0,0,0,0,0,0,0,0,0,0,0,0,0,0,0,0,0,0,0,0,0,0,0,0,0,0,0,0,0,0,0,0,0,0,0,0,0,0,0,0,0,0,0,0,0,0,-0.1627,-0.1628,0,-0.1676,-0.1676,-0.1676,-0.1712,-0.1713,-0.1713,-0.1713,-0.1761,-0.1761,-0.1762,0,0,0,0,0,0,0,0,0,0,0,0,0,-0.1558,-0.1559,-0.1627,-0.1628,-0.1629,-0.1675,-0.1676,-0.1677,-0.1712,-0.1713,-0.1713,-0.1714,-0.176,-0.1761,-0.1762,0,0,0,0,0,0,0,0,0,0,0,0,0,-0.1594,-0.156,-0.1627,-0.1653,-0.1656,-0.1675,-0.1676,-0.1677,-0.1712,-0.1713,-0.1713,-0.1714,-0.176,-0.1761,-0.1762,-0.1758,0,0,-0.1766,-0.1767,0,0,0,0,0,0,0,0,-0.1592,-0.1597,-0.1648,-0.1651,-0.1654,-0.169,-0.1669,-0.1704,-0.1712,-0.1689,-0.1713,-0.1714,-0.1737,-0.174,-0.1746,-0.176,-0.1762,-0.1766,-0.1767,-0.1768,-0.1768,0,0,0,0,0,0,0,-0.159,-0.1595,-0.1645,-0.1649,-0.1653,-0.166,-0.1666,-0.1676,-0.1708,-0.1691,-0.1694,-0.1702,-0.1739,-0.1745,-0.1747,-0.1762,-0.1766,-0.1768,-0.1768,-0.1769,-0.1847,-0.1848,0,0,0,0,0,0,-0.1586,-0.1593,-0.1644,-0.1647,-0.1626,-0.1661,-0.1667,-0.1677,-0.1708,-0.1714,-0.1701,-0.1703,-0.1742,-0.1746,-0.1749,-0.1816,-0.1768,-0.1769,-0.177,-0.1846,-0.1847,-0.1849,0,0,0,0,0,0,-0.1585,-0.159,-0.1642,-0.1621,-0.1629,-0.1661,-0.1672,-0.1677,-0.1711,-0.1716,-0.1721,-0.1733,-0.1743,-0.1747,-0.1788,-0.1815,-0.177,-0.1771,-0.1844,-0.1846,-0.1848,-0.1904,0,0,0,0,0,0,-0.1582,-0.159,-0.1608,-0.1621,-0.163,-0.1675,-0.1671,-0.1678,-0.1714,-0.1718,-0.1744,-0.1747,-0.1744,-0.1787,-0.179,-0.1816,-0.1772,-0.1843,-0.1845,-0.1847,-0.19,-0.1908,-0.1914,0,0,0,0,0,-0.158,-0.16,-0.1608,-0.1615,-0.165,-0.1676,-0.1682,-0.1705,-0.1715,-0.1737,-0.1758,-0.1748,-0.1804,-0.1789,-0.1792,-0.182,-0.1841,-0.1844,-0.1847,-0.1898,-0.1906,-0.1914,0,0,0,0,0,0,-0.1582,-0.1606,-0.1615,-0.1643,-0.1668,-0.1683,-0.1709,-0.1721,-0.1754,-0.1766,-0.1767,-0.1773,-0.1815,-0.1812,-0.1795,-0.1849,-0.182,-0.1824,-0.1857,-0.1865,-0.1872,-0.1862,-0.1773,0,0,0,0,0,-0.159,-0.1612,-0.1633,-0.1659,-0.1674,-0.1696,-0.1715,-0.1731,-0.1755,-0.1772,-0.1791,-0.181,-0.1825,-0.1842,-0.1854,-0.1888,-0.1865,-0.1907,-0.1913,-0.1919,-0.1914,-0.1905,-0.191,-0.1858,-0.1858,-0.1858,0,0,-0.1599,-0.1614,-0.1628,-0.1661,-0.1682,-0.1711,-0.171,-0.1748,-0.1776,-0.177,-0.1826,-0.1836,-0.1839,-0.1875,-0.1894,-0.1881,-0.1924,-0.1923,-0.1927,-0.1919,-0.1909,-0.1913,-0.1918,-0.186,-0.186,-0.186,0,0,-0.1617,-0.1642,-0.1665,-0.1689,-0.1727,-0.1741,-0.1759,-0.1794,-0.1818,-0.1864,-0.1865,-0.1892,-0.1927,-0.193,-0.1934,-0.1984,-0.1957,-0.1996,-0.2026,-0.2018,-0.2022,-0.2025,-0.2007,-0.2008,-0.2002,-0.2002,-0.2002,0,-0.1629,-0.1655,-0.1677,-0.1706,-0.173,-0.1758,-0.1789,-0.1817,-0.1863,-0.1882,-0.1893,-0.1938,-0.1947,-0.1972,-0.1994,-0.1997,-0.1986,-0.1996,-0.2026,-0.2028,-0.203,-0.201,-0.2011,-0.2005,-0.2005,-0.2005,-0.2004,0,-0.1653,-0.1688,-0.1707,-0.1749,-0.178,-0.1814,-0.185,-0.189,-0.1923,-0.1942,-0.1988,-0.2001,-0.2023,-0.2036,-0.2033,-0.2057,-0.2043,-0.2032,-0.2002,-0.2038,-0.2016,-0.2015,-0.201,-0.2009,-0.2008,-0.2007,0,0,-0.1639,-0.171,-0.1719,-0.1747,-0.1806,-0.183,-0.1886,-0.193,-0.1962,-0.2009,-0.2042,-0.2075,-0.2081,-0.2085,-0.2088,-0.2088,-0.2099,-0.2076,-0.2074,-0.2052,-0.2079,-0.1955,-0.1942,-0.2098,-0.2098,-0.2098,-0.2059,0,-0.1652,-0.1706,-0.1741,-0.1801,-0.1831,-0.1879,-0.1924,-0.1971,-0.201,-0.2053,-0.2069,-0.2103,-0.21,-0.2119,-0.212,-0.2105,-0.2099,-0.211,-0.2052,-0.2049,-0.193,-0.1937,-0.2099,-0.2058,-0.2057,-0.2057,-0.2057,0,-0.1653,-0.1691,-0.175,-0.1822,-0.1842,-0.1888,-0.1957,-0.2001,-0.2059,-0.209,-0.2123,-0.2137,-0.2157,-0.2147,-0.213,-0.2141,-0.2115,-0.2096,-0.2094,-0.1954,-0.1923,-0.2013,-0.2055,-0.2055,-0.2055,-0.2055,-0.2055,0,-0.161,-0.1693,-0.174,-0.1767,-0.1855,-0.1898,-0.1948,-0.2015,-0.2048,-0.2116,-0.2139,-0.2165,-0.2176,-0.2159,-0.2127,-0.2136,-0.2091,-0.2092,-0.1952,-0.1943,-0.2043,-0.204,-0.2067,-0.2067,-0.2067,-0.2067,-0.2067,0,-0.1584,-0.1626,-0.1732,-0.1756,-0.1814,-0.1888,-0.1948,-0.2001,-0.2069,-0.2088,-0.2154,-0.2154,-0.2181,-0.216,-0.2131,-0.2026,-0.209,-0.1944,-0.1919,-0.2069,-0.2069,-0.2042,-0.2039,-0.2066,-0.2066,-0.2066,-0.2067,0,-0.1515,-0.159,-0.1649,-0.1757,-0.1794,-0.1836,-0.1937,-0.1964,-0.2051,-0.2077,-0.2099,-0.2148,-0.2117,-0.2116,-0.2078,-0.2007,-0.1938,-0.1885,-0.2039,-0.2025,-0.1797,-0.1799,-0.1722,-0.1717,-0.1713,-0.1709,-0.1706,0,-0.1476,-0.1503,-0.1629,-0.1658,-0.1712,-0.1789,-0.1826,-0.1937,-0.1956,-0.2042,-0.2028,-0.205,-0.2059,-0.1894,-0.1923,-0.1848,-0.1826,-0.1783,-0.1793,-0.1776,-0.176,-0.1768,-0.1774,-0.17,-0.1699,-0.1698,-0.1697,0,-0.1391,-0.1455,-0.1497,-0.1565,-0.1622,-0.1669,-0.1736,-0.1737,-0.184,-0.1944,-0.1892,-0.1866,-0.1827,-0.179,-0.1743,-0.1695,-0.1809,-0.174,-0.1748,-0.1758,-0.1749,-0.1739,-0.175,-0.1683,-0.1685,-0.1686,-0.1687,0,-0.1318,-0.1328,-0.1396,-0.1435,-0.1505,-0.1512,-0.1572,-0.1584,-0.1622,-0.1728,-0.1704,-0.1732,-0.1796,-0.1708,-0.1665,-0.1608,-0.1587,-0.1533,-0.1552,-0.1568,-0.1537,-0.1505,-0.1327,0,0,0,0,0,-0.1233,-0.1224,-0.1253,-0.1289,-0.1353,-0.139,-0.1483,-0.1544,-0.1654,-0.1567,-0.1631,-0.1588,-0.1531,-0.1552,-0.1458,-0.1599,-0.1595,-0.1484,-0.1545,-0.1604,-0.162,-0.1599,0,0,0,0,0,0,-0.1173,-0.1195,-0.1202,-0.1153,-0.1146,-0.1197,-0.1249,-0.1329,-0.1294,-0.1412,-0.1383,-0.1482,-0.1445,-0.1543,-0.1417,-0.1424,-0.1428,-0.1521,-0.1516,-0.1595,-0.161,-0.1623,-0.1606,0,0,0,0,0]},{"header":{"parameterUnit":"m.s-1","parameterCategory":2,"la1":30.2991,"la2":30.254,"lo1":-89.0895,"lo2":-89.0444,"dy":0.0017,"dx":0.0017,"nx":28,"ny":28,"refTime":"2025-01-13T09:00:00:Z","depth":"4","parameterNumber":3,"parameterNumberName":"V-component_of_CURRENTS"},"data":[0,0,0,0,0,0,0,0,0,0,0,0,0,0,0,0,0,0,0,0,0,0,0,0,0,0,0,0,0,0,0,0,0,0,0,0,0,0,0,0,0,0,0,0,0,0,0,0,0,0,0,0,0,0,0,0,0,0,-0.0216,-0.0216,0,-0.018,-0.0179,-0.0179,-0.0157,-0.0157,-0.0156,-0.0156,-0.0096,-0.0094,-0.0093,0,0,0,0,0,0,0,0,0,0,0,0,0,-0.0238,-0.0238,-0.0216,-0.0216,-0.0216,-0.018,-0.0179,-0.0179,-0.0157,-0.0157,-0.0156,-0.0156,-0.0096,-0.0095,-0.0093,0,0,0,0,0,0,0,0,0,0,0,0,0,-0.0217,-0.0237,-0.0217,-0.02,-0.0198,-0.018,-0.0179,-0.0178,-0.0157,-0.0157,-0.0156,-0.0156,-0.0097,-0.0095,-0.0093,-0.0082,0,0,-0.0086,-0.0085,0,0,0,0,0,0,0,0,-0.0219,-0.0217,-0.0203,-0.0201,-0.0199,-0.0173,-0.0164,-0.0145,-0.0157,-0.0173,-0.0156,-0.0156,-0.0119,-0.0115,-0.0109,-0.0079,-0.0076,-0.0085,-0.0084,-0.0083,-0.0082,0,0,0,0,0,0,0,-0.022,-0.0218,-0.0202,-0.0203,-0.02,-0.0184,-0.0182,-0.0161,-0.0147,-0.0171,-0.0169,-0.0165,-0.0118,-0.0111,-0.0107,-0.0075,-0.0086,-0.0084,-0.0082,-0.0081,-0.0028,-0.0028,0,0,0,0,0,0,-0.0226,-0.022,-0.0203,-0.0201,-0.0209,-0.0184,-0.0181,-0.0181,-0.0148,-0.0142,-0.0166,-0.0164,-0.0115,-0.011,-0.0105,-0.0088,-0.0083,-0.0081,-0.008,-0.0028,-0.0028,-0.0028,0,0,0,0,0,0,-0.0227,-0.0226,-0.0204,-0.0209,-0.0205,-0.0184,-0.0184,-0.0181,-0.0177,-0.0144,-0.0138,-0.0167,-0.0115,-0.0108,-0.0091,-0.0086,-0.008,-0.0078,-0.0028,-0.0028,-0.0028,-0.0056,0,0,0,0,0,0,-0.0228,-0.0226,-0.0232,-0.021,-0.0205,-0.0198,-0.0184,-0.018,-0.0175,-0.0173,-0.0143,-0.0137,-0.0114,-0.0094,-0.0088,-0.0083,-0.0076,-0.0028,-0.0028,-0.0028,-0.0055,-0.0057,-0.0058,0,0,0,0,0,-0.0229,-0.0236,-0.0232,-0.023,-0.0212,-0.0198,-0.0194,-0.0179,-0.0175,-0.0175,-0.0155,-0.0138,-0.0089,-0.0092,-0.0086,-0.0079,-0.0028,-0.0028,-0.0028,-0.0054,-0.0056,-0.0058,0,0,0,0,0,0,-0.0246,-0.0233,-0.0229,-0.0232,-0.0218,-0.0194,-0.0194,-0.0184,-0.0169,-0.017,-0.0139,-0.0131,-0.0114,-0.0094,-0.0099,-0.0063,-0.0055,-0.0053,-0.0077,-0.0079,-0.0081,-0.0086,-0.0074,0,0,0,0,0,-0.0253,-0.0258,-0.0239,-0.0242,-0.0237,-0.0218,-0.0212,-0.0202,-0.0184,-0.0178,-0.0155,-0.013,-0.0107,-0.0093,-0.0072,-0.0053,-0.0026,-0.0044,-0.0045,-0.0047,-0.0047,0.0,0.0003,-0.0027,-0.0027,-0.0027,0,0,-0.0261,-0.0255,-0.0257,-0.0246,-0.0236,-0.0233,-0.0214,-0.0209,-0.0204,-0.0173,-0.0161,-0.0138,-0.0105,-0.0085,-0.0074,-0.0067,-0.0025,-0.0047,-0.0048,-0.0047,0.0001,0.0004,0.0006,-0.0027,-0.0027,-0.0027,0,0,-0.0278,-0.0273,-0.0283,-0.0275,-0.0264,-0.025,-0.0251,-0.023,-0.0218,-0.0205,-0.0179,-0.0153,-0.0123,-0.0092,-0.0074,-0.0071,-0.0038,-0.0067,-0.0074,-0.0029,-0.0026,-0.0023,0.0011,0.0017,-0.0063,-0.0063,-0.0063,0,-0.0289,-0.0299,-0.0283,-0.0288,-0.0285,-0.026,-0.0267,-0.0249,-0.0224,-0.0211,-0.0207,-0.0151,-0.0124,-0.0086,-0.0086,-0.0074,-0.0049,-0.007,-0.0031,-0.0027,-0.0023,0.0011,0.0018,-0.0065,-0.0064,-0.0064,-0.0064,0,-0.0311,-0.032,-0.0324,-0.0324,-0.0316,-0.0318,-0.0292,-0.0282,-0.0267,-0.0242,-0.0209,-0.0169,-0.0134,-0.0119,-0.0102,-0.0062,-0.0054,-0.0042,-0.0026,-0.0022,0.0013,0.0021,-0.0067,-0.0066,-0.0066,-0.0065,0,0,-0.0335,-0.0341,-0.0344,-0.0354,-0.0337,-0.0336,-0.0322,-0.03,-0.0292,-0.0255,-0.0234,-0.0186,-0.016,-0.0138,-0.0105,-0.0063,-0.0018,-0.0046,-0.0043,-0.0014,0.0075,0.0068,0.0076,0.0001,0.0002,0.0003,0.0088,0,-0.0361,-0.0389,-0.0376,-0.0396,-0.0407,-0.0378,-0.0368,-0.0342,-0.0312,-0.0283,-0.0224,-0.0196,-0.0167,-0.0153,-0.0104,-0.0041,0.0003,-0.0042,0.0068,0.0071,0.0064,0.0085,0.0008,0.0094,0.0096,0.0097,0.0098,0,-0.0388,-0.0405,-0.0436,-0.044,-0.0441,-0.0445,-0.0427,-0.0414,-0.0357,-0.0331,-0.028,-0.0234,-0.0166,-0.0147,-0.0027,-0.0059,0.0003,0.0055,0.006,0.0069,0.008,0.0091,0.0113,0.0112,0.0111,0.011,0.0109,0,-0.0425,-0.0444,-0.0474,-0.0477,-0.0476,-0.0482,-0.0476,-0.0434,-0.0421,-0.0361,-0.0342,-0.0253,-0.0212,-0.0117,-0.001,-0.0018,0.0122,0.0126,0.0182,0.0182,0.0175,0.0171,0.0214,0.0214,0.0213,0.0213,0.0213,0,-0.0457,-0.0481,-0.0501,-0.052,-0.0553,-0.0529,-0.0543,-0.0519,-0.0477,-0.0457,-0.0375,-0.0334,-0.0203,-0.0106,-0.0011,0.0112,0.0127,0.0187,0.0208,0.016,0.0153,0.018,0.0175,0.0216,0.0216,0.0215,0.0215,0,-0.0493,-0.0505,-0.0546,-0.0566,-0.0576,-0.0601,-0.0602,-0.0602,-0.0557,-0.0527,-0.051,-0.039,-0.0262,-0.0127,0.0034,0.0104,0.0225,0.0265,0.0201,0.0216,0.0253,0.0245,0.0332,0.0332,0.0333,0.0333,0.0334,0,-0.0512,-0.054,-0.0593,-0.0625,-0.0641,-0.0671,-0.0686,-0.0653,-0.0642,-0.0556,-0.0539,-0.0412,-0.0321,-0.0091,0.0045,0.0232,0.0254,0.0308,0.0284,0.0255,0.0267,0.0259,0.0251,0.0334,0.0334,0.0335,0.0335,0,-0.0548,-0.0573,-0.0609,-0.0682,-0.0719,-0.0748,-0.0762,-0.0758,-0.0703,-0.0667,-0.0549,-0.0416,-0.0267,-0.0089,0.0057,0.019,0.0268,0.0314,0.0313,0.0291,0.0259,0.0269,0.0261,0.0336,0.0336,0.0336,0.0336,0,-0.0572,-0.0611,-0.0666,-0.0722,-0.0777,-0.0802,-0.0806,-0.0771,-0.0744,-0.064,-0.0601,-0.0423,-0.0315,-0.011,0.0028,0.0156,0.0181,0.0207,0.0213,0.0213,0.015,0.0091,0.0142,0,0,0,0,0,-0.0588,-0.0632,-0.0697,-0.0756,-0.0811,-0.0832,-0.0841,-0.0826,-0.0777,-0.0701,-0.0645,-0.0498,-0.0267,-0.0156,-0.003,0.0018,0.0185,0.0167,0.0213,0.0346,0.0344,0.029,0,0,0,0,0,0,-0.0598,-0.0664,-0.0698,-0.0768,-0.0809,-0.0853,-0.0857,-0.0824,-0.0766,-0.07,-0.0571,-0.0484,-0.0258,-0.0341,-0.0032,0.0009,0.0051,0.0283,0.0286,0.0347,0.0345,0.0343,0.0287,0,0,0,0,0]}]]